Location: Allentsteig
(48.6833°N, 15.3167°E)
Time: 00:53:09
(UTC+00:00)

Cosmos 2298 Rocket - Pass Details

Date: 25 January 2021
Orbit: 775 x 784 km, 74.0° (Epoch: 03 March)

Event Time Altitude Azimuth Distance (km) Brightness Sun altitude
Exits shadow 02:43:57 16° 27° (NNE) 1,990 6.5 -38.1°
Maximum altitude 02:45:18 17° 45° (NE) 1,914 6.5 -37.9°
Drops below altitude 10° 02:48:42 10° 85° (E) 2,346 7.2 -37.4°
Sets 02:51:58 0° 105° (ESE) 3,270 8.0 -36.9°
